📊 Raw Sensor Data
Showing records 38326 to 38350 of 84,927 total
| ID | Distance (ft) | Battery V | Battery A | Int Temp (°F) | Int Humid (%) | Ext Temp (°F) | Solar V | RSSI | SNR | Time Stamp |
|---|---|---|---|---|---|---|---|---|---|---|
| 46614 | 14.9 | 3.85 | -5 | 56 | 44 | 57 | 0.00 | -68 | 8 | 07/18/2025 02:30 AM |
| 46613 | 14.9 | 3.94 | -5 | 56 | 44 | 57 | 0.00 | -70 | 8 | 07/18/2025 02:15 AM |
| 46612 | 14.9 | 3.85 | -5 | 57 | 44 | 57 | 0.00 | -68 | 8 | 07/18/2025 02:00 AM |
| 46611 | 14.9 | 3.85 | -5 | 57 | 44 | 58 | 0.00 | -70 | 8 | 07/18/2025 01:45 AM |
| 46610 | 14.9 | 3.85 | -5 | 57 | 45 | 58 | 0.00 | -70 | 8 | 07/18/2025 01:30 AM |
| 46609 | 14.9 | 3.94 | -5 | 58 | 45 | 58 | 0.00 | -70 | 8 | 07/18/2025 01:15 AM |
| 46608 | 14.9 | 3.94 | -5 | 58 | 45 | 59 | 0.00 | -69 | 8 | 07/18/2025 01:00 AM |
| 46607 | 14.9 | 3.85 | -5 | 58 | 45 | 59 | 0.00 | -69 | 8 | 07/18/2025 12:45 AM |
| 46606 | 14.9 | 3.85 | -5 | 59 | 45 | 59 | 0.10 | -69 | 8 | 07/18/2025 12:30 AM |
| 46605 | 14.9 | 3.85 | -5 | 59 | 45 | 60 | 0.00 | -70 | 8 | 07/18/2025 12:15 AM |
| 46604 | 14.9 | 3.85 | -5 | 59 | 45 | 60 | 0.00 | -69 | 8 | 07/18/2025 12:00 AM |
| 46603 | 14.9 | 3.95 | -5 | 59 | 45 | 60 | 0.00 | -69 | 8 | 07/17/2025 11:45 PM |
| 46602 | 14.9 | 3.95 | -5 | 60 | 46 | 60 | 0.00 | -71 | 8 | 07/17/2025 11:30 PM |
| 46601 | 14.9 | 3.95 | -5 | 60 | 46 | 61 | 0.00 | -69 | 8 | 07/17/2025 11:15 PM |
| 46600 | 14.9 | 3.95 | -5 | 61 | 46 | 61 | 0.00 | -70 | 7 | 07/17/2025 11:00 PM |
| 46599 | 14.9 | 3.95 | -5 | 61 | 47 | 62 | 0.00 | -70 | 8 | 07/17/2025 10:45 PM |
| 46598 | 14.8 | 3.85 | -5 | 62 | 47 | 62 | 0.00 | -71 | 8 | 07/17/2025 10:30 PM |
| 46597 | 14.9 | 3.85 | -5 | 62 | 48 | 63 | 0.00 | -70 | 8 | 07/17/2025 10:15 PM |
| 46596 | 14.9 | 3.85 | -5 | 63 | 48 | 63 | 0.00 | -68 | 8 | 07/17/2025 10:00 PM |
| 46595 | 14.8 | 3.85 | -5 | 64 | 49 | 64 | 0.00 | -65 | 8 | 07/17/2025 09:45 PM |
| 46594 | 14.8 | 3.84 | -5 | 65 | 50 | 65 | 0.00 | -65 | 8 | 07/17/2025 09:30 PM |
| 46593 | 14.8 | 3.84 | -5 | 66 | 51 | 65 | 0.00 | -65 | 8 | 07/17/2025 09:15 PM |
| 46592 | 14.9 | 3.81 | -5 | 67 | 53 | 66 | 0.00 | -65 | 8 | 07/17/2025 09:00 PM |
| 46591 | 14.9 | 3.95 | -5 | 69 | 54 | 67 | 0.70 | -66 | 8 | 07/17/2025 08:45 PM |
| 46590 | 14.9 | 3.94 | -10 | 72 | 55 | 68 | 3.20 | -66 | 9 | 07/17/2025 08:30 PM |